This is the latest recevied weather packets stored in our database for station/object SV6GMP-10. If no packets are shown the sender has not sent any weather packets the latest 10 day(s).
| Time | Temp. | Humidity | Pressure | Rain* | Wind** | Luminosity | Snow |
|---|---|---|---|---|---|---|---|
| 1788603508 | 32.22° C | 41% | 1017.3 hPa | - | - | - | - |
| 1788602608 | 32.78° C | 31% | 1017.3 hPa | - | - | - | - |
| 1788601708 | 32.78° C | 30% | 1017.4 hPa | - | - | - | - |
| 1788600840 | 32.22° C | 30% | 1017.3 hPa | - | - | - | - |
| 1788600808 | 32.22° C | 30% | 1017.3 hPa | - | - | - | - |
| 1788599916 | 32.22° C | 35% | 1017.5 hPa | - | - | - | - |
| 1788599008 | 31.67° C | 34% | 1017.6 hPa | - | - | - | - |
| 1788598107 | 31.11° C | 33% | 1017.7 hPa | - | - | - | - |
| 1788597208 | 31.11° C | 33% | 1017.6 hPa | - | - | - | - |
| 1788596320 | 30.56° C | 37% | 1017.7 hPa | - | - | - | - |
| 1788595407 | 30.56° C | 37% | 1017.6 hPa | - | - | - | - |
| 1788594507 | 30.56° C | 36% | 1017.6 hPa | - | - | - | - |
| 1788593606 | 30.56° C | 42% | 1017.4 hPa | - | - | - | - |
| 1788592706 | 30° C | 43% | 1017.3 hPa | - | - | - | - |
| 1788591806 | 30° C | 41% | 1017.4 hPa | - | - | - | - |
| 1788590906 | 29.44° C | 39% | 1017.2 hPa | - | - | - | - |
| 1788590005 | 29.44° C | 39% | 1017.2 hPa | - | - | - | - |
| 1788589105 | 28.89° C | 40% | 1017.2 hPa | - | - | - | - |
| 1788588205 | 28.89° C | 45% | 1017.2 hPa | - | - | - | - |
| 1788587305 | 28.33° C | 47% | 1017.2 hPa | - | - | - | - |
| 1788586405 | 28.33° C | 45% | 1017.1 hPa | - | - | - | - |
| 1788585505 | 28.33° C | 43% | 1017.1 hPa | - | - | - | - |
| 1788584605 | 28.89° C | 49% | 1017 hPa | - | - | - | - |
| 1788583709 | 28.33° C | 48% | 1016.9 hPa | - | - | - | - |
| 1788582805 | 28.33° C | 43% | 1016.6 hPa | - | - | - | - |
* Rain since midnight (hover to see other rain measurements)
** Current wind speed in m/s (hover to see current wind gust speed)